Pasco, WA
on Thursday, January 31, 2013

Thursday
Previous Day Next Day
Daily Summary
 ActualAverageRecord
Temperature
Mean Temperature °F 37°F  
Max Temperature 56°F 45°F 66°F (1995)
Min Temperature 40°F 29°F -16°F (1996)
Degree Days
Heating Degree Days 17 28  
Month to date heating degree days 1004 934  
Since 1 July heating degree days 2911 3151  
Cooling Degree Days 0 0  
Month to date cooling degree days 0 0  
Year to date cooling degree days 0 0  
Moisture
Dew Point 39°F   
Average Humidity 69    
Maximum Humidity 83    
Minimum Humidity 55    
Precipitation
Precipitation T in in 0.54 in (1997)
Month to date precipitation 0.36  
Year to date precipitation 0.36  
Snow
Snow 0.00 in in in ()
Snow Depth 0.00 in   
Wind
Wind Speed 8 mph   
Max Wind Speed 18 mph   
Max Gust Speed 21 mph   
Visibility 10 miles   
Events     

Key: T is trace of precipitation, MM is missing value
Source: NWS Daily Summary
Time(PST)TemperatureDew PointHumidity Pressure Visibility Wind DirectionWind SpeedGust SpeedPrecipitationEvents Conditions
12:53 AM 45.0°F 39.0°F 80% 30.29 in 10.0 miles SSW 6.9 mph - N/A   Mostly Cloudy
1:53 AM 46.0°F 39.9°F 79% 30.30 in 10.0 miles SSW 5.8 mph - N/A   Overcast
2:53 AM 46.0°F 39.9°F 79% 30.30 in 10.0 miles SW 5.8 mph - N/A   Overcast
3:53 AM 46.0°F 39.9°F 79% 30.30 in 10.0 miles SSW 8.1 mph - N/A   Overcast
4:53 AM 45.0°F 39.9°F 82% 30.30 in 10.0 miles South 8.1 mph - N/A   Overcast
5:53 AM 46.0°F 39.9°F 79% 30.29 in 10.0 miles SSW 6.9 mph - N/A   Overcast
6:53 AM 45.0°F 39.0°F 80% 30.29 in 10.0 miles SW 5.8 mph - N/A   Partly Cloudy
7:53 AM 45.0°F 39.0°F 80% 30.31 in 10.0 miles SSW 8.1 mph - N/A   Mostly Cloudy
8:53 AM 46.9°F 39.9°F 77% 30.31 in 10.0 miles SSW 11.5 mph - N/A   Clear
9:53 AM 48.9°F 39.9°F 71% 30.32 in 10.0 miles SSW 12.7 mph - N/A   Clear
10:53 AM 52.0°F 39.9°F 63% 30.32 in 10.0 miles SSW 17.3 mph - N/A   Clear
11:53 AM 52.0°F 39.9°F 63% 30.30 in 10.0 miles SSW 11.5 mph - N/A   Scattered Clouds
12:53 PM 55.0°F 39.9°F 57% 30.28 in 10.0 miles SSW 12.7 mph - N/A   Clear
1:53 PM 55.9°F 39.9°F 55% 30.26 in 10.0 miles SW 9.2 mph - N/A   Clear
2:53 PM 55.0°F 39.0°F 55% 30.26 in 10.0 miles SW 8.1 mph - N/A   Clear
4:53 PM 51.1°F 41.0°F 68% 30.25 in 10.0 miles SSW 6.9 mph - 0.00 in   Overcast
5:53 PM 50.0°F 39.9°F 68% 30.25 in 10.0 miles SSW 5.8 mph - N/A   Overcast
6:53 PM 46.9°F 37.9°F 71% 30.24 in 10.0 miles SW 8.1 mph - N/A   Mostly Cloudy
7:53 PM 46.0°F 37.9°F 73% 30.24 in 10.0 miles SW 10.4 mph - N/A   Scattered Clouds
8:53 PM 44.1°F 37.0°F 76% 30.25 in 10.0 miles WSW 5.8 mph - N/A   Clear
10:53 PM 42.1°F 37.0°F 82% 30.25 in 10.0 miles SSW 9.2 mph - N/A   Clear
Moon Phase
Jan. 31 Feb. 03 Feb. 10 Feb. 17 Feb. 25
Sunrise:07:20 AM (PST) Moon Rise:10:29 PM (PST)1/31
Sunset:05:00 PM (PST) Moon Set:09:02 AM (PST)1/31

Copyright © 2014 The Weather Underground, Inc.